PUUANAHULU HI US current weather conditions

sailwx.info

Wind from 108 at 2 knots gusting 8

Air temperature 13.3° C
Dewpoint 4.2° C

Last reported at 2017-Feb-24 09:37 UTC.
Time now 2017-Feb-24 10:32 UTC

Location: N 19°50' W 155°46'.
View on Google Maps.

See reports from other nearby stations

  
Tides and Currents Weather Stations Pressure Air Temp Water Temp Dewpoint Dewpoint Depression Visibility Wind Speed Wind Dir Waves Ship Positions
date/time (UTC)wind fromknots sea level pressurealtimeterstation pressurevisibilityair tempwater tempwave heightnotes
2017-Feb-24 09:37 108 2 gusting 8 13.3
2017-Feb-24 08:37 134 5 gusting 6 13.3
2017-Feb-24 07:37 134 2 gusting 5 13.3
2017-Feb-24 06:37 184 4 gusting 6 15.0
2017-Feb-24 05:37 123 0 gusting 8 15.6
2017-Feb-24 04:37 023 3 gusting 13 17.2
2017-Feb-24 03:37 031 9 gusting 20 20.0
2017-Feb-24 02:37 033 11 gusting 22 21.7
2017-Feb-24 01:37 025 14 gusting 22 22.2
2017-Feb-24 00:37 009 11 gusting 19 23.3
2017-Feb-23 23:37 359 11 gusting 21 22.8
2017-Feb-23 22:37 007 13 gusting 22 22.2
2017-Feb-23 21:37 003 14 gusting 25 21.7
2017-Feb-23 20:37 359 9 gusting 19 22.2
2017-Feb-23 19:37 300 5 gusting 9 20.6
2017-Feb-23 18:37 169 4 gusting 12 19.4
2017-Feb-23 17:37 139 8 gusting 17 13.3
2017-Feb-23 16:37 140 10 gusting 15 11.7
2017-Feb-23 15:37 137 9 gusting 13 12.2
2017-Feb-23 14:37 139 8 gusting 15 12.8
2017-Feb-23 13:37 161 9 gusting 13 13.3
2017-Feb-23 12:37 077 2 gusting 18 13.3
2017-Feb-23 11:37 134 8 gusting 16 13.3
2017-Feb-23 10:37 137 7 gusting 10 12.8
2017-Feb-23 09:37 142 3 gusting 11 14.4
2017-Feb-23 08:37 143 7 gusting 13 15.0
2017-Feb-23 07:37 168 5 gusting 7 15.0
2017-Feb-23 06:37 135 5 gusting 6 15.0
2017-Feb-23 05:37 067 4 gusting 9 15.0
2017-Feb-23 04:37 259 1 gusting 19 16.7
2017-Feb-23 03:37 027 13 gusting 25 19.4
2017-Feb-23 02:37 025 16 gusting 27 20.6
2017-Feb-23 01:37 020 15 gusting 27 21.7
2017-Feb-23 00:37 011 16 gusting 26 22.2
2017-Feb-22 23:37 014 13 gusting 23 22.8
2017-Feb-22 22:37 010 16 gusting 26 22.8
2017-Feb-22 21:37 028 14 gusting 24 22.8
2017-Feb-22 20:37 020 13 gusting 22 22.2
2017-Feb-22 19:37 030 12 gusting 19 20.6
2017-Feb-22 18:37 040 7 gusting 13 18.3
2017-Feb-22 17:37 177 2 gusting 7 15.6
2017-Feb-22 16:37 097 5 gusting 9 12.8
2017-Feb-22 15:37 136 5 gusting 16 13.9
2017-Feb-22 14:37 104 6 gusting 12 13.9
2017-Feb-22 13:37 159 6 gusting 9 12.2
2017-Feb-22 12:37 165 1 gusting 5 13.3
2017-Feb-22 11:37 180 1 gusting 8 14.4
2017-Feb-22 10:37 123 2 gusting 7 15.0